[[{"header":{"parameterUnit":"m.s-1","parameterCategory":1,"la1":30.2992,"la2":30.254,"lo1":-89.0895,"lo2":-89.0443,"dy":0.0025,"dx":0.0025,"nx":19,"ny":19,"refTime":"2026-05-11T21:00:00:Z","depth":0,"parameterNumber":2,"parameterNumberName":"U-component_of_WINDS"},"data":[0,0,0,-2.0626,-2.0627,-2.0683,-2.0683,-2.0774,-2.0775,0,0,0,0,0,0,0,0,0,0,0,-2.0621,-2.0622,-2.0626,-2.0627,-2.0683,-2.0683,-2.0773,-2.0775,0,0,0,0,0,0,0,0,0,0,0,-2.062,-2.0621,-2.0623,-2.0628,-2.0683,-2.0683,-2.0773,-2.0725,0,0,0,0,0,0,0,0,0,0,-2.0667,-2.0673,-2.0621,-2.0623,-2.0628,-2.0683,-2.0683,-2.0722,-2.0728,-2.0757,0,-2.0785,0,-2.0781,-2.0782,-2.0782,0,0,0,-2.0619,-2.0669,-2.0673,-2.0623,-2.0629,-2.0683,-2.0656,-2.0725,-2.0731,-2.0764,-2.0786,-2.0789,-2.0783,-2.0783,-2.0783,-2.0976,-2.0977,0,0,-2.0616,-2.0637,-2.0669,-2.0678,-2.067,-2.0654,-2.0657,-2.0728,-2.0754,-2.0786,-2.0791,-2.0784,-2.0783,-2.0784,-2.0975,-2.0976,0,0,0,-2.0613,-2.0635,-2.0638,-2.0675,-2.0683,-2.0656,-2.066,-2.0751,-2.075,-2.0791,-2.0785,-2.0784,-2.0785,-2.0973,-2.0975,-2.1059,0,0,0,-2.0611,-2.0633,-2.0637,-2.065,-2.0682,-2.0718,-2.0681,-2.0745,-2.0752,-2.0785,-2.0784,-2.0786,-2.0972,-2.0974,-2.1054,-2.1097,0,0,0,-2.0613,-2.0633,-2.0645,-2.0651,-2.0675,-2.0716,-2.0719,-2.0746,-2.0749,-2.0782,-2.0787,-2.0971,-2.0974,-2.1049,-2.1089,-2.1155,0,0,0,-2.0622,-2.0719,-2.0647,-2.0753,-2.0675,-2.0767,-2.0718,-2.0785,-2.0824,-2.0785,-2.0972,-2.0975,-2.1048,-2.1084,-2.115,-2.1215,-2.1244,0,0,-2.0757,-2.0736,-2.0797,-2.0733,-2.0843,-2.0757,-2.0879,-2.0895,-2.0879,-2.0945,-2.0949,-2.1056,-2.1088,-2.1154,-2.1394,-2.1417,0,0,0,-2.0847,-2.0891,-2.0915,-2.0953,-2.0966,-2.0982,-2.0977,-2.0982,-2.1037,-2.0917,-2.1095,-2.1114,-2.1152,-2.1182,-2.1202,-2.1233,-2.0989,-2.0989,-2.0989,-2.1069,-2.1042,-2.1141,-2.1122,-2.1158,-2.1151,-2.1179,-2.1185,-2.1149,-2.1191,-2.1212,-2.136,-2.1397,-2.1411,-2.1445,-2.1242,-2.1242,-2.1242,-2.1243,-2.1265,-2.1324,-2.1271,-2.1348,-2.132,-2.1385,-2.1381,-2.1353,-2.141,-2.1343,-2.1375,-2.1307,-2.1437,-2.1465,-2.1249,-2.1248,-2.1247,-2.1246,-2.1246,-2.141,-2.1434,-2.1438,-2.1488,-2.153,-2.1506,-2.1563,-2.1534,-2.1508,-2.1539,-2.1559,-2.1557,-2.1554,-2.155,-2.155,-2.1551,-2.1551,-2.1552,-2.1552,-2.156,-2.1561,-2.1612,-2.1634,-2.1654,-2.1676,-2.1669,-2.1688,-2.1702,-2.1677,-2.1677,-2.1637,-2.1454,-2.141,-2.156,-2.1559,-2.1558,-2.1557,-2.1556,-2.1773,-2.172,-2.1799,-2.1819,-2.1841,-2.1886,-2.1847,-2.1888,-2.1899,-2.1929,-2.188,-2.1749,-2.1727,-2.1711,-2.1675,-2.1885,-2.1885,-2.1885,-2.1885,-2.1898,-2.1882,-2.1956,-2.199,-2.2019,-2.1992,-2.2083,-2.2078,-2.2064,-2.207,-2.2034,-2.1982,-2.1967,-2.1954,-2.1933,-2.1899,-2.2161,-2.2162,-2.2162,-2.2028,-2.2014,-2.2098,-2.2082,-2.2097,-2.2111,-2.2196,-2.2237,-2.221,-2.2172,-2.2074,-2.2062,-2.1978,-2.1952,-2.1916,-2.1884,-2.182,0,0]},{"header":{"parameterUnit":"m.s-1","parameterCategory":1,"la1":30.2992,"la2":30.254,"lo1":-89.0895,"lo2":-89.0443,"dy":0.0025,"dx":0.0025,"nx":19,"ny":19,"refTime":"2026-05-11T21:00:00:Z","depth":0,"parameterNumber":3,"parameterNumberName":"V-component_of_WINDS"},"data":[0,0,0,-3.7094,-3.7098,-3.7276,-3.7277,-3.7502,-3.7504,0,0,0,0,0,0,0,0,0,0,0,-3.7041,-3.7042,-3.7094,-3.7099,-3.7276,-3.7277,-3.7501,-3.7504,0,0,0,0,0,0,0,0,0,0,0,-3.704,-3.7042,-3.7044,-3.7099,-3.7276,-3.7277,-3.7501,-3.7367,0,0,0,0,0,0,0,0,0,0,-3.7195,-3.7145,-3.7042,-3.7044,-3.71,-3.7276,-3.7277,-3.7361,-3.7376,-3.742,0,-3.746,0,-3.7486,-3.7518,-3.7519,0,0,0,-3.7099,-3.7133,-3.7182,-3.7044,-3.7102,-3.7275,-3.7196,-3.7369,-3.7386,-3.744,-3.7463,-3.7472,-3.7489,-3.752,-3.7521,-3.7779,-3.778,0,0,-3.7089,-3.7072,-3.717,-3.7192,-3.7166,-3.719,-3.7202,-3.7379,-3.7404,-3.7464,-3.7477,-3.7493,-3.7521,-3.7523,-3.7778,-3.7779,0,0,0,-3.7061,-3.7066,-3.711,-3.7183,-3.7215,-3.7195,-3.7208,-3.7396,-3.7412,-3.748,-3.7496,-3.7523,-3.7525,-3.7776,-3.7778,-3.7821,0,0,0,-3.7055,-3.7049,-3.7106,-3.7097,-3.7212,-3.7308,-3.7221,-3.7399,-3.742,-3.7494,-3.7523,-3.7528,-3.7775,-3.7777,-3.7817,-3.7845,0,0,0,-3.703,-3.7046,-3.7072,-3.7096,-3.7172,-3.7306,-3.7332,-3.7404,-3.743,-3.7519,-3.7528,-3.7774,-3.7777,-3.7814,-3.7839,-3.7909,0,0,0,-3.6998,-3.7107,-3.7072,-3.72,-3.717,-3.7331,-3.7331,-3.7451,-3.7533,-3.7524,-3.7775,-3.7778,-3.7813,-3.7836,-3.7905,-3.7965,-3.7988,0,0,-3.7126,-3.7122,-3.7198,-3.7172,-3.7335,-3.7305,-3.7475,-3.7565,-3.7588,-3.7713,-3.772,-3.7819,-3.7839,-3.7908,-3.8122,-3.814,0,0,0,-3.7233,-3.7288,-3.7335,-3.7413,-3.7485,-3.7549,-3.7615,-3.7648,-3.7756,-3.7649,-3.7863,-3.7875,-3.7916,-3.7946,-3.7961,-3.7998,-3.779,-3.779,-3.779,-3.7392,-3.7416,-3.7545,-3.759,-3.7665,-3.7733,-3.7796,-3.7852,-3.7854,-3.7904,-3.7942,-3.8069,-3.8103,-3.8115,-3.8153,-3.7975,-3.7975,-3.7975,-3.7975,-3.7583,-3.7665,-3.7665,-3.779,-3.7815,-3.792,-3.7988,-3.7986,-3.8087,-3.8042,-3.808,-3.803,-3.8134,-3.8169,-3.7979,-3.7978,-3.7978,-3.7977,-3.7977,-3.769,-3.7734,-3.7773,-3.7887,-3.7973,-3.8015,-3.8112,-3.8131,-3.8149,-3.8186,-3.8228,-3.8228,-3.823,-3.8205,-3.8205,-3.8206,-3.8206,-3.8206,-3.8207,-3.7786,-3.7829,-3.7909,-3.7995,-3.8047,-3.8118,-3.8186,-3.8238,-3.83,-3.8306,-3.8307,-3.8304,-3.814,-3.8098,-3.8214,-3.8212,-3.8211,-3.8211,-3.821,-3.7972,-3.7933,-3.8057,-3.811,-3.8212,-3.8296,-3.8318,-3.8422,-3.8467,-3.8515,-3.8504,-3.8379,-3.8376,-3.8364,-3.833,-3.8498,-3.8498,-3.8498,-3.8498,-3.8064,-3.8064,-3.8195,-3.8278,-3.8361,-3.8394,-3.8533,-3.8586,-3.8636,-3.8665,-3.8643,-3.86,-3.8586,-3.8591,-3.8574,-3.8543,-3.8761,-3.8761,-3.8762,-3.818,-3.8189,-3.8304,-3.8353,-3.8434,-3.8503,-3.8634,-3.8729,-3.8776,-3.8773,-3.8689,-3.8678,-3.8608,-3.8583,-3.8579,-3.8552,-3.8495,0,0]}]]